Wind_Speed
11 10 9 7 6 5 3 3 8 6 3 2 3 4 5 6 7 7 6 7 5 3 2 1 3 4 4 2 6 9 3 17 11 5 5 4 3 9 8 10 8 3 7 5 6
13 11 10 10 9 8 6 4 3 8 7 5 4 5 6 7 8 6 5 6 6 2 1 1 4 4 1 5 6 9 8 14 14 6 4 8 7 11 9 10 9 5 7 8 7
15 15 13 11 10 7 6 5 2 2 6 12 8 8 8 9 9 8 6 6 6 2 1 2 2 3 4 6 5 8 6 16 18 9 5 8 6 9 9 12 9 4 7 9 10
14 14 14 13 13 11 7 4 4 6 7 7 9 11 11 11 10 10 7 6 6 2 1 0 3 5 3 13 11 9 2 18 16 12 7 7 6 3 5 12 7 3 10 10 10
14 13 13 13 13 13 12 9 6 7 7 10 13 13 13 12 13 11 10 8 7 5 2 6 3 4 6 8 12 11 12 10 12 15 14 8 7 7 9 9 6 5 11 8 9
16 15 14 13 13 13 12 12 10 7 8 10 10 12 15 15 15 13 12 11 10 9 0 4 4 4 2 6 10 10 10 10 7 5 11 10 7 8 8 8 9 7 9 8 8
19 18 16 15 15 15 14 12 11 11 10 9 12 15 14 14 16 14 14 11 12 12 4 6 6 4 4 4 4 7 9 9 8 11 10 9 11 8 9 10 8 7 4 7 9
18 18 19 19 18 18 17 15 12 12 12 12 12 13 14 16 15 15 14 14 14 13 8 10 8 7 4 5 5 2 2 5 7 8 6 4 2 8 10 13 11 8 5 8 10
16 18 18 19 20 20 17 15 13 13 14 13 12 11 12 12 14 14 14 13 14 12 12 12 9 9 4 9 7 8 4 2 3 7 5 3 9 3 11 13 11 6 6 4 8
14 14 15 17 18 19 17 15 14 14 14 14 11 10 9 10 11 12 14 14 14 13 14 12 10 10 5 10 10 5 3 3 3 3 3 4 3 8 9 11 7 5 9 8 8
17 17 17 16 16 18 18 18 17 14 13 12 11 10 8 7 8 11 10 11 13 16 15 11 10 5 11 11 14 12 10 6 1 4 6 5 4 12 6 2 6 5 11 8 9
19 20 20 20 18 17 18 18 17 16 14 11 11 10 8 5 6 8 7 10 14 14 12 13 13 12 12 12 12 12 13 9 5 6 3 3 5 5 6 1 6 4 11 12 10
21 21 21 21 20 18 17 17 17 15 13 9 11 12 9 7 6 7 7 9 11 12 14 15 15 13 10 11 12 10 9 7 7 9 9 5 4 7 7 8 8 8 10 8 9
24 22 21 20 20 19 17 17 15 15 13 12 13 12 10 7 7 7 6 7 11 13 12 15 11 11 11 9 7 10 10 8 6 8 7 8 9 8 6 8 7 8 9 11 12
27 26 24 22 20 20 18 17 16 14 12 14 12 11 11 9 6 5 6 8 11 12 13 15 13 11 8 10 10 11 11 7 5 5 6 10 12 15 10 9 11 12 8 11 14
26 27 26 25 22 22 20 18 18 16 16 11 8 7 9 8 7 7 7 10 12 15 13 14 11 8 11 14 10 9 9 7 10 7 7 10 12 16 16 16 17 14 12 7 8
20 21 21 23 22 23 22 21 18 18 15 12 12 10 8 7 6 7 9 12 14 14 15 12 11 13 14 9 6 6 7 11 11 9 10 12 12 13 20 20 20 21 17 13 9
22 22 21 19 20 25 25 24 22 20 19 17 13 11 12 8 7 7 8 9 13 13 14 16 16 14 12 10 10 9 9 10 11 11 12 10 12 12 17 20 26 21 19 18 14
22 20 22 23 24 25 27 25 24 22 21 20 18 15 12 13 11 9 10 10 9 13 18 18 11 11 11 8 8 8 8 8 11 12 14 11 12 15 16 17 19 24 23 22 20
26 25 25 21 23 24 25 23 26 27 25 24 21 18 18 14 12 12 11 8 7 13 14 13 15 11 12 12 9 11 11 10 10 13 13 11 13 17 18 22 19 20 22 24 25
31 29 26 22 22 23 23 25 28 33 29 27 25 21 21 21 16 16 15 12 11 14 16 15 14 12 13 14 14 12 11 10 14 15 16 15 12 17 18 19 21 20 21 20 22
34 34 29 24 22 22 24 29 34 38 34 30 28 26 23 24 25 19 17 13 13 14 14 13 9 10 12 14 16 17 18 17 17 18 19 18 13 13 19 19 21 20 21 23 24
36 36 31 26 20 22 26 28 32 36 39 35 31 32 30 27 27 25 22 19 18 19 19 16 11 11 12 17 19 20 19 18 18 17 14 14 17 15 18 17 19 18 19 26 27
35 39 34 27 19 21 25 29 32 35 39 38 35 35 33 32 26 29 27 26 25 24 24 23 19 17 18 19 18 22 22 18 16 14 14 16 17 16 18 17 15 16 15 23 25
35 35 36 33 22 21 25 29 30 32 38 42 40 39 35 31 31 32 32 31 30 29 30 29 26 20 19 21 22 19 18 17 16 18 18 18 16 13 13 11 10 10 11 12 17
35 34 32 33 31 23 25 28 28 30 36 39 47 46 41 35 33 32 33 30 31 35 37 31 29 23 17 21 21 21 20 17 19 19 18 16 14 12 11 8 11 8 8 10 16
37 33 30 29 29 32 30 27 28 32 35 37 40 49 46 42 38 34 32 31 34 35 33 28 25 23 20 22 22 21 21 22 22 18 18 15 13 12 10 9 12 8 7 9 14
Wind_Direction
35 37 34 32 28 29 14 272 229 223 230 262 279 283 283 277 273 271 282 290 297 356 22 230 235 226 255 8 334 338 54 169 147 115 73 77 76 92 85 69 66 57 89 111 119
29 29 27 27 26 20 24 34 245 235 233 242 274 294 294 283 274 273 262 282 295 330 17 229 255 260 1 17 20 339 216 214 200 122 79 101 110 81 78 79 73 63 97 109 98
38 36 32 24 14 6 2 355 323 302 267 248 263 278 289 285 269 265 259 271 286 317 261 237 292 44 67 21 9 35 43 171 165 144 103 141 116 77 85 75 65 67 99 93 94
32 33 31 25 19 15 358 305 301 269 266 269 260 263 268 271 264 262 256 256 273 279 219 62 41 77 88 27 40 12 237 188 191 157 136 134 142 183 79 75 66 60 89 99 105
25 22 22 20 17 14 11 1 316 271 271 264 259 265 267 258 264 262 255 249 257 251 111 82 162 121 95 41 50 56 74 146 160 160 157 145 113 84 91 87 72 43 86 96 111
26 22 19 17 20 14 10 6 0 329 280 272 278 276 267 262 258 256 254 244 249 255 179 168 196 174 52 89 44 61 71 82 70 215 180 135 114 82 88 81 81 51 72 82 83
24 20 16 17 17 14 10 2 359 352 332 297 284 280 276 274 258 255 249 246 247 253 240 224 223 183 125 73 62 77 86 66 72 63 126 179 110 122 115 109 86 105 108 110 105
17 15 14 12 10 9 7 3 352 341 328 312 304 290 293 271 265 246 245 243 246 255 249 240 237 236 193 198 144 149 63 39 40 58 76 142 223 137 124 110 90 95 122 128 113
2 3 5 5 5 5 6 2 349 338 333 326 314 288 289 284 269 248 239 235 237 236 243 244 243 248 224 196 185 210 211 143 0 21 72 121 221 131 120 105 114 134 146 143 135
338 340 346 352 354 357 356 351 344 337 336 333 331 311 293 283 283 257 238 230 234 232 238 247 247 250 217 203 172 192 249 99 46 39 167 85 103 216 199 175 131 147 169 178 162
324 324 325 330 339 346 345 343 340 340 339 341 340 334 313 283 278 262 240 230 227 230 231 239 241 232 237 218 206 225 243 262 327 82 79 113 86 109 140 218 271 258 173 194 180
319 320 320 320 322 330 334 338 340 333 335 338 344 341 326 310 273 253 237 225 226 224 225 225 226 217 227 232 231 246 256 260 228 211 171 96 117 104 98 230 285 182 169 164 169
310 314 317 320 321 321 322 327 334 330 331 327 342 335 335 322 292 250 219 223 222 205 217 223 232 222 222 233 233 248 257 235 219 212 217 226 208 154 157 170 173 161 160 150 154
304 305 306 309 312 314 312 314 321 325 321 317 319 313 313 304 274 249 226 219 215 211 217 228 233 228 231 224 254 273 262 224 213 209 203 237 249 245 176 160 171 173 195 177 193
298 298 296 297 300 303 303 302 306 310 305 315 304 297 290 295 285 248 226 225 222 200 210 237 229 236 251 256 249 236 246 243 251 233 219 228 232 247 239 218 203 218 210 201 208
297 295 291 288 290 292 291 289 292 294 300 296 288 276 277 272 282 274 218 209 217 199 198 218 219 214 231 243 237 246 255 263 274 261 234 249 242 237 239 242 235 216 233 224 213
302 303 302 291 285 282 283 281 276 280 289 291 299 262 256 261 251 243 220 193 197 204 196 188 191 202 214 239 254 278 268 263 262 267 244 254 252 237 233 240 253 243 232 236 255
310 311 304 293 287 278 276 274 271 271 274 281 278 284 233 228 228 223 223 202 194 191 188 180 203 217 216 236 256 259 264 263 277 291 284 280 274 240 239 245 251 257 255 257 258
318 314 308 293 282 277 272 272 268 266 264 266 269 273 244 219 220 214 200 205 204 193 194 199 200 206 226 250 256 266 254 269 277 282 284 280 268 266 258 260 257 257 257 257 256
312 320 318 297 282 275 269 263 260 260 258 258 257 263 255 235 228 229 234 220 201 201 217 223 229 230 236 256 248 259 266 262 289 297 290 285 275 276 270 271 266 262 251 248 240
312 318 318 297 280 270 265 255 252 253 252 251 257 253 261 264 254 233 235 212 193 187 202 228 252 275 260 263 270 271 281 286 290 305 300 296 297 266 272 273 278 269 256 255 235
314 315 314 303 281 264 255 249 249 253 252 246 248 248 252 253 262 247 245 238 225 226 229 245 269 276 271 275 282 290 292 295 296 297 282 289 300 284 279 291 288 268 272 274 256
311 313 315 309 286 259 256 255 252 252 257 253 247 249 251 251 252 257 245 246 249 258 259 258 244 255 274 277 282 281 283 291 300 297 293 292 290 292 294 299 298 280 266 264 272
310 311 312 308 292 261 255 250 244 243 248 254 245 246 252 255 252 253 246 244 252 259 267 269 268 267 271 266 280 286 277 285 289 286 286 291 297 296 295 300 295 293 281 262 257
308 310 309 308 293 269 255 252 250 241 241 243 246 245 251 251 253 252 245 240 252 262 269 269 271 271 277 275 278 275 270 276 284 273 288 295 306 291 287 294 301 296 276 247 262
307 307 302 302 298 278 260 251 249 243 242 236 238 245 247 250 247 251 255 250 248 254 258 261 268 272 262 261 268 271 272 268 269 271 278 289 302 279 267 262 270 291 291 277 243
309 303 297 294 288 283 274 254 252 245 239 238 235 234 241 244 243 250 254 252 249 247 253 259 263 266 260 261 263 267 276 277 270 265 270 270 275 271 245 245 251 231 254 294 262
Height
5869 5868 5867 5866 5866 5865 5864 5864 5864 5865 5865 5865 5865 5865 5865 5864 5864 5865 5867 5867 5867 5869 5869 5868 5867 5867 5868 5869 5868 5867 5864 5867 5871 5872 5871 5871 5872 5871 5871 5870 5869 5869 5868 5868 5867
5871 5869 5868 5867 5866 5865 5865 5864 5864 5865 5865 5865 5865 5865 5865 5864 5864 5865 5866 5866 5866 5869 5869 5868 5867 5867 5868 5869 5868 5865 5865 5867 5871 5872 5871 5871 5874 5872 5872 5870 5870 5870 5870 5870 5869
5873 5871 5870 5868 5867 5866 5866 5865 5865 5865 5864 5864 5864 5864 5865 5864 5864 5864 5865 5866 5865 5868 5868 5868 5867 5870 5870 5870 5867 5864 5862 5864 5869 5871 5872 5873 5874 5872 5872 5870 5871 5872 5871 5871 5871
5875 5873 5872 5870 5868 5867 5866 5865 5864 5864 5863 5863 5863 5863 5863 5863 5864 5863 5865 5866 5865 5867 5868 5869 5870 5870 5870 5869 5865 5865 5864 5864 5867 5872 5873 5873 5874 5873 5873 5872 5873 5874 5872 5872 5873
5877 5875 5873 5872 5870 5868 5866 5865 5864 5863 5862 5862 5861 5861 5861 5862 5861 5862 5863 5865 5865 5866 5868 5870 5869 5870 5870 5869 5869 5867 5866 5866 5868 5870 5872 5875 5875 5875 5874 5874 5874 5875 5873 5874 5875
5879 5877 5874 5872 5870 5869 5867 5865 5863 5862 5861 5860 5859 5859 5860 5860 5859 5860 5862 5863 5864 5864 5868 5869 5868 5870 5871 5870 5870 5870 5869 5870 5870 5871 5872 5872 5875 5875 5875 5876 5875 5876 5875 5876 5878
5881 5878 5876 5874 5871 5869 5867 5864 5863 5861 5860 5858 5857 5857 5858 5858 5857 5858 5860 5861 5863 5863 5866 5867 5867 5869 5870 5870 5871 5871 5871 5871 5872 5873 5873 5873 5874 5875 5877 5876 5876 5876 5878 5877 5878
5882 5880 5877 5874 5872 5869 5867 5865 5863 5861 5859 5857 5856 5855 5855 5855 5855 5856 5857 5859 5861 5862 5865 5865 5866 5867 5870 5870 5871 5872 5872 5872 5873 5872 5873 5871 5874 5876 5877 5876 5877 5878 5880 5880 5879
5883 5881 5878 5875 5873 5870 5867 5864 5862 5859 5857 5855 5854 5853 5853 5853 5853 5854 5855 5857 5858 5860 5861 5864 5866 5867 5869 5870 5872 5873 5873 5874 5874 5872 5873 5873 5870 5871 5878 5878 5878 5880 5881 5882 5883
5883 5881 5879 5876 5874 5871 5867 5864 5861 5858 5856 5854 5852 5853 5852 5851 5851 5851 5853 5854 5857 5859 5860 5862 5865 5866 5867 5869 5872 5872 5872 5873 5874 5873 5872 5873 5874 5875 5876 5879 5880 5882 5882 5883 5883
5883 5880 5878 5876 5874 5871 5867 5864 5862 5859 5855 5854 5852 5851 5850 5850 5850 5850 5851 5853 5855 5857 5858 5861 5863 5865 5865 5867 5869 5869 5871 5871 5872 5872 5872 5873 5874 5874 5875 5876 5878 5881 5880 5882 5884
5881 5879 5877 5875 5873 5871 5867 5864 5861 5858 5855 5853 5851 5850 5849 5848 5849 5849 5851 5853 5853 5855 5857 5859 5860 5863 5864 5866 5867 5868 5868 5870 5871 5872 5872 5873 5873 5874 5874 5875 5876 5877 5880 5880 5883
5879 5877 5875 5873 5871 5869 5866 5863 5860 5858 5855 5853 5851 5850 5849 5849 5848 5849 5850 5851 5853 5854 5855 5857 5858 5860 5863 5865 5866 5867 5867 5868 5869 5870 5871 5872 5873 5874 5876 5876 5875 5876 5878 5880 5881
5875 5874 5872 5870 5869 5866 5864 5862 5859 5857 5855 5853 5851 5850 5849 5848 5848 5848 5848 5850 5851 5852 5854 5856 5857 5859 5861 5863 5864 5865 5866 5866 5866 5869 5870 5871 5871 5872 5874 5873 5875 5875 5876 5878 5880
5870 5868 5867 5865 5864 5862 5862 5859 5858 5856 5855 5853 5849 5848 5847 5848 5848 5846 5847 5847 5849 5851 5854 5855 5857 5859 5860 5861 5863 5864 5863 5863 5865 5867 5868 5870 5871 5871 5873 5874 5875 5876 5875 5876 5880
5864 5862 5861 5861 5859 5857 5856 5856 5855 5855 5852 5852 5849 5847 5846 5846 5845 5845 5845 5847 5848 5850 5852 5853 5856 5858 5860 5860 5861 5861 5861 5863 5863 5865 5867 5867 5869 5869 5870 5871 5872 5874 5874 5875 5878
5860 5858 5856 5855 5855 5852 5851 5851 5852 5851 5850 5849 5849 5847 5845 5845 5844 5845 5845 5845 5847 5848 5850 5853 5855 5857 5858 5858 5859 5859 5861 5861 5863 5863 5865 5865 5866 5867 5867 5868 5868 5869 5871 5871 5873
5855 5853 5851 5850 5848 5846 5846 5845 5846 5847 5846 5846 5845 5845 5844 5843 5843 5844 5844 5845 5845 5846 5849 5852 5855 5856 5857 5858 5858 5858 5859 5859 5859 5860 5860 5861 5861 5862 5863 5864 5864 5866 5868 5869 5870
5849 5848 5845 5844 5843 5840 5840 5840 5839 5841 5841 5840 5841 5841 5842 5842 5843 5843 5843 5845 5846 5847 5851 5851 5854 5855 5855 5856 5857 5856 5857 5858 5857 5857 5856 5858 5858 5858 5859 5859 5860 5861 5864 5866 5867
5843 5842 5839 5837 5836 5835 5834 5835 5832 5832 5834 5835 5837 5838 5838 5839 5841 5841 5841 5844 5845 5846 5849 5850 5851 5852 5853 5853 5855 5855 5856 5856 5856 5855 5854 5855 5855 5854 5854 5853 5855 5855 5857 5859 5862
5835 5834 5832 5830 5829 5828 5828 5828 5825 5822 5827 5831 5832 5834 5834 5835 5837 5838 5839 5842 5843 5844 5846 5848 5849 5851 5850 5850 5851 5852 5852 5853 5853 5853 5851 5850 5852 5849 5848 5848 5848 5849 5852 5853 5856
5827 5827 5825 5822 5822 5821 5820 5819 5819 5815 5820 5824 5826 5828 5830 5831 5833 5834 5835 5838 5840 5841 5843 5844 5845 5846 5847 5847 5847 5847 5847 5848 5848 5850 5848 5847 5849 5846 5845 5845 5844 5845 5847 5848 5848
5819 5817 5816 5814 5813 5812 5813 5813 5812 5813 5812 5817 5821 5822 5824 5827 5830 5830 5832 5834 5835 5836 5838 5840 5843 5845 5845 5845 5844 5844 5844 5844 5844 5844 5843 5843 5844 5844 5842 5842 5839 5840 5842 5842 5844
5814 5808 5807 5805 5805 5804 5804 5803 5803 5805 5806 5809 5814 5816 5819 5821 5824 5826 5828 5829 5830 5831 5833 5834 5837 5839 5840 5839 5840 5839 5839 5840 5841 5840 5840 5840 5839 5839 5837 5837 5836 5835 5836 5836 5837
5806 5802 5796 5795 5796 5795 5795 5794 5796 5797 5798 5800 5804 5808 5812 5815 5818 5819 5822 5824 5825 5826 5827 5828 5831 5834 5834 5833 5833 5834 5834 5836 5836 5835 5836 5836 5836 5835 5833 5833 5833 5831 5832 5832 5832
5797 5794 5789 5785 5783 5786 5786 5785 5787 5788 5791 5793 5796 5798 5802 5806 5810 5814 5815 5818 5820 5821 5821 5822 5824 5826 5829 5828 5828 5828 5829 5831 5831 5831 5831 5832 5832 5832 5830 5830 5829 5827 5827 5828 5828
5786 5784 5781 5779 5775 5772 5773 5777 5777 5778 5780 5782 5785 5789 5793 5796 5800 5806 5809 5811 5813 5813 5815 5817 5819 5820 5822 5822 5822 5824 5824 5824 5824 5826 5827 5828 5828 5828 5827 5826 5826 5825 5825 5824 5823